Time,TemperatureF,DewpointF,PressureIn,WindDirection,WindDirectionDegrees,WindSpeedMPH,WindSpeedGustMPH,Humidity,HourlyPrecipIn,Conditions,Clouds,dailyrainin,SoftwareType,DateUTC
2013-09-19 00:00:00,59.7,47.1,29.43,NNW,338,3.0,6.0,63,0.00,,,0.00,VWS V14.01,2013-09-19 07:00:00,
2013-09-19 00:01:00,57.0,43.7,29.40,NNW,347,2.0,11.0,61,0.00,,,0.00,VWS V14.01,2013-09-19 07:01:00,
2013-09-19 00:06:00,56.7,43.8,29.40,NNW,347,2.0,11.0,62,0.00,,,0.00,VWS V14.01,2013-09-19 07:06:00,
2013-09-19 00:11:00,56.7,43.8,29.39,NNW,347,2.0,11.0,62,0.00,,,0.00,VWS V14.01,2013-09-19 07:11:00,
2013-09-19 00:16:00,56.7,43.4,29.39,NNW,347,3.0,11.0,61,0.00,,,0.00,VWS V14.01,2013-09-19 07:16:00,
2013-09-19 00:21:00,56.6,43.3,29.39,NNW,347,2.0,11.0,61,0.00,,,0.00,VWS V14.01,2013-09-19 07:21:00,
2013-09-19 00:26:00,56.5,43.7,29.39,NNW,347,2.0,11.0,62,0.00,,,0.00,VWS V14.01,2013-09-19 07:26:00,
2013-09-19 00:30:00,58.9,46.8,29.44,NNW,338,2.0,5.0,64,0.00,,,0.00,VWS V14.01,2013-09-19 07:30:00,
2013-09-19 00:31:00,56.5,43.7,29.39,NNW,347,3.0,11.0,62,0.00,,,0.00,VWS V14.01,2013-09-19 07:31:00,
2013-09-19 00:37:00,56.3,43.5,29.39,NNW,347,1.0,11.0,62,0.00,,,0.00,VWS V14.01,2013-09-19 07:37:00,
2013-09-19 00:42:00,56.1,42.8,29.39,NNW,347,2.0,11.0,61,0.00,,,0.00,VWS V14.01,2013-09-19 07:42:00,
2013-09-19 00:47:00,56.1,43.3,29.39,NNW,347,2.0,11.0,62,0.00,,,0.00,VWS V14.01,2013-09-19 07:47:00,
2013-09-19 00:52:00,56.1,43.3,29.39,NNW,347,2.0,11.0,62,0.00,,,0.00,VWS V14.01,2013-09-19 07:52:00,
2013-09-19 00:57:00,55.9,43.1,29.39,NNW,347,2.0,11.0,62,0.00,,,0.00,VWS V14.01,2013-09-19 07:57:00,
2013-09-19 01:00:00,58.6,46.5,29.43,NNW,338,2.0,5.0,64,0.00,,,0.00,VWS V14.01,2013-09-19 08:00:00,
2013-09-19 01:02:00,55.9,43.5,29.39,NNW,347,2.0,11.0,63,0.00,,,0.00,VWS V14.01,2013-09-19 08:02:00,
2013-09-19 01:07:00,55.8,43.4,29.39,NNW,347,3.0,11.0,63,0.00,,,0.00,VWS V14.01,2013-09-19 08:07:00,
2013-09-19 01:12:00,55.6,43.2,29.39,NNW,347,2.0,11.0,63,0.00,,,0.00,VWS V14.01,2013-09-19 08:12:00,
2013-09-19 01:17:00,55.6,43.2,29.39,NNW,347,3.0,11.0,63,0.00,,,0.00,VWS V14.01,2013-09-19 08:17:00,
2013-09-19 01:22:00,55.3,42.9,29.38,NNW,347,2.0,11.0,63,0.00,,,0.00,VWS V14.01,2013-09-19 08:22:00,
2013-09-19 01:27:00,55.1,43.2,29.38,NNW,347,2.0,11.0,64,0.00,,,0.00,VWS V14.01,2013-09-19 08:27:00,
2013-09-19 01:30:00,58.7,46.2,29.43,NNW,338,2.0,5.0,63,0.00,,,0.00,VWS V14.01,2013-09-19 08:30:00,
2013-09-19 01:32:00,55.1,43.2,29.38,NNW,347,2.0,11.0,64,0.00,,,0.00,VWS V14.01,2013-09-19 08:32:00,
2013-09-19 01:37:00,55.2,43.2,29.38,NNW,347,2.0,11.0,64,0.00,,,0.00,VWS V14.01,2013-09-19 08:37:00,
2013-09-19 01:42:00,55.2,43.2,29.38,NNW,347,2.0,11.0,64,0.00,,,0.00,VWS V14.01,2013-09-19 08:42:00,
2013-09-19 01:47:00,55.3,43.3,29.38,NNW,347,2.0,11.0,64,0.00,,,0.00,VWS V14.01,2013-09-19 08:47:00,
2013-09-19 01:52:00,55.3,43.3,29.38,NNW,347,1.0,11.0,64,0.00,,,0.00,VWS V14.01,2013-09-19 08:52:00,
2013-09-19 01:57:00,55.4,43.4,29.38,NNW,347,1.0,11.0,64,0.00,,,0.00,VWS V14.01,2013-09-19 08:57:00,
2013-09-19 02:00:00,58.4,46.3,29.43,NNW,338,2.0,4.0,64,0.00,,,0.00,VWS V14.01,2013-09-19 09:00:00,
2013-09-19 02:02:00,55.4,43.4,29.39,NNW,347,1.0,11.0,64,0.00,,,0.00,VWS V14.01,2013-09-19 09:02:00,
2013-09-19 02:07:00,55.3,43.3,29.39,NNW,347,1.0,11.0,64,0.00,,,0.00,VWS V14.01,2013-09-19 09:07:00,
2013-09-19 02:12:00,55.2,43.7,29.38,NNW,347,1.0,11.0,65,0.00,,,0.00,VWS V14.01,2013-09-19 09:12:00,
2013-09-19 02:17:00,55.2,43.7,29.38,NNW,347,1.0,11.0,65,0.00,,,0.00,VWS V14.01,2013-09-19 09:17:00,
2013-09-19 02:22:00,55.2,43.7,29.39,NNW,347,1.0,11.0,65,0.00,,,0.00,VWS V14.01,2013-09-19 09:22:00,
2013-09-19 02:27:00,55.2,43.7,29.38,NNW,347,2.0,11.0,65,0.00,,,0.00,VWS V14.01,2013-09-19 09:27:00,
2013-09-19 02:30:00,57.7,46.0,29.43,NNW,338,2.0,5.0,65,0.00,,,0.00,VWS V14.01,2013-09-19 09:30:00,
2013-09-19 02:32:00,55.0,43.5,29.38,NNW,347,1.0,11.0,65,0.00,,,0.00,VWS V14.01,2013-09-19 09:32:00,
2013-09-19 02:37:00,54.8,43.3,29.38,NNW,347,0.0,11.0,65,0.00,,,0.00,VWS V14.01,2013-09-19 09:37:00,
2013-09-19 02:42:00,54.7,43.6,29.38,NNW,347,1.0,11.0,66,0.00,,,0.00,VWS V14.01,2013-09-19 09:42:00,
2013-09-19 02:47:00,54.7,43.2,29.38,NNW,347,2.0,11.0,65,0.00,,,0.00,VWS V14.01,2013-09-19 09:47:00,
2013-09-19 02:52:00,54.7,43.6,29.38,NNW,347,2.0,11.0,66,0.00,,,0.00,VWS V14.01,2013-09-19 09:52:00,
2013-09-19 02:57:00,54.9,43.4,29.38,NNW,347,2.0,11.0,65,0.00,,,0.00,VWS V14.01,2013-09-19 09:57:00,
2013-09-19 03:00:00,57.0,46.2,29.43,NNW,338,2.0,4.0,67,0.00,,,0.00,VWS V14.01,2013-09-19 10:00:00,
2013-09-19 03:02:00,55.1,43.6,29.38,NNW,347,1.0,11.0,65,0.00,,,0.00,VWS V14.01,2013-09-19 10:02:00,
2013-09-19 03:07:00,55.2,43.7,29.38,NNW,347,0.0,11.0,65,0.00,,,0.00,VWS V14.01,2013-09-19 10:07:00,
2013-09-19 03:12:00,55.2,43.2,29.38,NNW,347,0.0,11.0,64,0.00,,,0.00,VWS V14.01,2013-09-19 10:12:00,
2013-09-19 03:17:00,55.2,43.2,29.38,NNW,347,2.0,11.0,64,0.00,,,0.00,VWS V14.01,2013-09-19 10:17:00,
2013-09-19 03:22:00,55.1,43.2,29.38,NNW,347,2.0,11.0,64,0.00,,,0.00,VWS V14.01,2013-09-19 10:22:00,
2013-09-19 03:27:00,55.0,43.5,29.37,NNW,347,1.0,11.0,65,0.00,,,0.00,VWS V14.01,2013-09-19 10:27:00,
2013-09-19 03:30:00,56.9,45.7,29.42,NNW,338,2.0,4.0,66,0.00,,,0.00,VWS V14.01,2013-09-19 10:30:00,
2013-09-19 03:32:00,54.8,43.3,29.37,NNW,347,2.0,11.0,65,0.00,,,0.00,VWS V14.01,2013-09-19 10:32:00,
2013-09-19 03:37:00,54.6,43.1,29.37,NNW,347,1.0,11.0,65,0.00,,,0.00,VWS V14.01,2013-09-19 10:37:00,
2013-09-19 03:42:00,54.4,42.9,29.38,NNW,347,2.0,11.0,65,0.00,,,0.00,VWS V14.01,2013-09-19 10:42:00,
2013-09-19 03:47:00,54.2,42.7,29.38,NNW,347,2.0,11.0,65,0.00,,,0.00,VWS V14.01,2013-09-19 10:47:00,
2013-09-19 03:52:00,54.1,43.0,29.37,NNW,347,2.0,11.0,66,0.00,,,0.00,VWS V14.01,2013-09-19 10:52:00,
2013-09-19 03:57:00,53.9,42.8,29.37,NNW,347,2.0,11.0,66,0.00,,,0.00,VWS V14.01,2013-09-19 10:57:00,
2013-09-19 04:00:00,56.5,46.1,29.43,NNW,338,2.0,4.0,68,0.00,,,0.00,VWS V14.01,2013-09-19 11:00:00,
2013-09-19 04:02:00,54.1,43.4,29.38,NNW,347,2.0,11.0,67,0.00,,,0.00,VWS V14.01,2013-09-19 11:02:00,
2013-09-19 04:07:00,54.1,43.0,29.37,NNW,347,2.0,11.0,66,0.00,,,0.00,VWS V14.01,2013-09-19 11:07:00,
2013-09-19 04:12:00,54.1,43.0,29.37,NNW,347,1.0,11.0,66,0.00,,,0.00,VWS V14.01,2013-09-19 11:12:00,
2013-09-19 04:17:00,54.2,43.1,29.38,NNW,347,2.0,11.0,66,0.00,,,0.00,VWS V14.01,2013-09-19 11:17:00,
2013-09-19 04:22:00,54.1,43.0,29.37,NNW,347,2.0,11.0,66,0.00,,,0.00,VWS V14.01,2013-09-19 11:22:00,
2013-09-19 04:27:00,54.1,43.4,29.38,NNW,347,3.0,11.0,67,0.00,,,0.00,VWS V14.01,2013-09-19 11:27:00,
2013-09-19 04:30:00,56.3,45.5,29.42,NNW,338,2.0,5.0,67,0.00,,,0.00,VWS V14.01,2013-09-19 11:30:00,
2013-09-19 04:32:00,53.9,43.2,29.38,NNW,347,1.0,11.0,67,0.00,,,0.00,VWS V14.01,2013-09-19 11:32:00,
2013-09-19 04:37:00,53.9,43.2,29.37,NNW,347,2.0,11.0,67,0.00,,,0.00,VWS V14.01,2013-09-19 11:37:00,
2013-09-19 04:42:00,53.8,43.1,29.37,NNW,347,2.0,11.0,67,0.00,,,0.00,VWS V14.01,2013-09-19 11:42:00,
2013-09-19 04:47:00,53.7,43.0,29.38,NNW,347,2.0,11.0,67,0.00,,,0.00,VWS V14.01,2013-09-19 11:47:00,
2013-09-19 04:52:00,53.6,42.9,29.37,NNW,347,1.0,11.0,67,0.00,,,0.00,VWS V14.01,2013-09-19 11:52:00,
2013-09-19 05:00:00,56.7,45.9,29.42,NNW,338,1.0,3.0,67,0.00,,,0.00,VWS V14.01,2013-09-19 12:00:00,
2013-09-19 05:02:00,53.3,43.0,29.37,NNW,347,1.0,11.0,68,0.00,,,0.00,VWS V14.01,2013-09-19 12:02:00,
2013-09-19 05:07:00,53.2,42.9,29.38,NNW,347,2.0,11.0,68,0.00,,,0.00,VWS V14.01,2013-09-19 12:07:00,
2013-09-19 05:12:00,53.2,42.9,29.38,NNW,347,1.0,11.0,68,0.00,,,0.00,VWS V14.01,2013-09-19 12:12:00,
2013-09-19 05:17:00,53.2,42.9,29.38,NNW,347,2.0,11.0,68,0.00,,,0.00,VWS V14.01,2013-09-19 12:17:00,
2013-09-19 05:22:00,53.2,42.9,29.38,NNW,347,2.0,11.0,68,0.00,,,0.00,VWS V14.01,2013-09-19 12:22:00,
2013-09-19 05:27:00,53.3,43.0,29.38,NNW,347,2.0,11.0,68,0.00,,,0.00,VWS V14.01,2013-09-19 12:27:00,
2013-09-19 05:30:00,55.9,45.9,29.43,NNW,338,2.0,4.0,69,0.00,,,0.00,VWS V14.01,2013-09-19 12:30:00,
2013-09-19 05:32:00,53.4,43.1,29.37,NNW,347,2.0,11.0,68,0.00,,,0.00,VWS V14.01,2013-09-19 12:32:00,
2013-09-19 05:37:00,53.3,43.0,29.38,NNW,347,3.0,11.0,68,0.00,,,0.00,VWS V14.01,2013-09-19 12:37:00,
2013-09-19 05:42:00,53.2,42.9,29.38,NNW,347,2.0,11.0,68,0.00,,,0.00,VWS V14.01,2013-09-19 12:42:00,
2013-09-19 05:47:00,53.1,42.8,29.38,NNW,347,2.0,11.0,68,0.00,,,0.00,VWS V14.01,2013-09-19 12:47:00,
2013-09-19 05:52:00,52.9,42.6,29.38,NNW,347,0.0,11.0,68,0.00,,,0.00,VWS V14.01,2013-09-19 12:52:00,
2013-09-19 05:57:00,52.9,42.6,29.38,NNW,347,0.0,11.0,68,0.00,,,0.00,VWS V14.01,2013-09-19 12:57:00,
2013-09-19 06:00:00,55.1,45.5,29.43,NNW,338,2.0,3.0,70,0.00,,,0.00,VWS V14.01,2013-09-19 13:00:00,
2013-09-19 06:02:00,52.8,42.5,29.38,NNW,347,0.0,11.0,68,0.00,,,0.00,VWS V14.01,2013-09-19 13:02:00,
2013-09-19 06:07:00,52.7,42.5,29.38,NNW,347,2.0,11.0,68,0.00,,,0.00,VWS V14.01,2013-09-19 13:07:00,
2013-09-19 06:12:00,52.6,42.3,29.38,NNW,347,2.0,11.0,68,0.00,,,0.00,VWS V14.01,2013-09-19 13:12:00,
2013-09-19 06:17:00,52.6,42.3,29.38,NNW,347,2.0,11.0,68,0.00,,,0.00,VWS V14.01,2013-09-19 13:17:00,
2013-09-19 06:22:00,52.6,42.7,29.39,NNW,347,2.0,11.0,69,0.00,,,0.00,VWS V14.01,2013-09-19 13:22:00,
2013-09-19 06:27:00,52.6,42.7,29.38,NNW,347,3.0,11.0,69,0.00,,,0.00,VWS V14.01,2013-09-19 13:27:00,
2013-09-19 06:30:00,55.2,44.8,29.43,NNW,338,2.0,4.0,68,0.00,,,0.00,VWS V14.01,2013-09-19 13:30:00,
2013-09-19 06:32:00,52.4,42.5,29.39,NNW,347,2.0,11.0,69,0.00,,,0.00,VWS V14.01,2013-09-19 13:32:00,
2013-09-19 06:37:00,52.5,42.6,29.39,NNW,347,2.0,11.0,69,0.00,,,0.00,VWS V14.01,2013-09-19 13:37:00,
2013-09-19 06:42:00,52.4,42.5,29.39,NNW,347,1.0,11.0,69,0.00,,,0.00,VWS V14.01,2013-09-19 13:42:00,
2013-09-19 06:47:00,52.5,42.6,29.39,NNW,347,2.0,11.0,69,0.00,,,0.00,VWS V14.01,2013-09-19 13:47:00,
2013-09-19 06:52:00,52.7,42.8,29.39,NNW,347,2.0,11.0,69,0.00,,,0.00,VWS V14.01,2013-09-19 13:52:00,
2013-09-19 06:57:00,52.7,42.5,29.39,NNW,347,2.0,11.0,68,0.00,,,0.00,VWS V14.01,2013-09-19 13:57:00,
2013-09-19 07:00:00,55.7,45.3,29.43,NNW,338,2.0,6.0,68,0.00,,,0.00,VWS V14.01,2013-09-19 14:00:00,
2013-09-19 07:02:00,52.7,42.5,29.39,NNW,347,1.0,11.0,68,0.00,,,0.00,VWS V14.01,2013-09-19 14:02:00,
2013-09-19 07:07:00,52.7,42.5,29.39,NNW,347,1.0,11.0,68,0.00,,,0.00,VWS V14.01,2013-09-19 14:07:00,
2013-09-19 07:12:00,52.6,42.3,29.40,NNW,347,2.0,11.0,68,0.00,,,0.00,VWS V14.01,2013-09-19 14:12:00,
2013-09-19 07:17:00,52.7,42.5,29.40,NNW,347,2.0,11.0,68,0.00,,,0.00,VWS V14.01,2013-09-19 14:17:00,
2013-09-19 07:22:00,52.8,42.5,29.40,NNW,347,1.0,11.0,68,0.00,,,0.00,VWS V14.01,2013-09-19 14:22:00,
2013-09-19 07:27:00,53.0,42.7,29.40,NNW,347,1.0,11.0,68,0.00,,,0.00,VWS V14.01,2013-09-19 14:27:00,
2013-09-19 07:30:00,55.8,45.0,29.44,NNW,338,1.0,3.0,67,0.00,,,0.00,VWS V14.01,2013-09-19 14:30:00,
2013-09-19 07:32:00,53.2,42.9,29.40,NNW,347,2.0,11.0,68,0.00,,,0.00,VWS V14.01,2013-09-19 14:32:00,
2013-09-19 07:38:00,53.3,42.6,29.40,NNW,347,1.0,11.0,67,0.00,,,0.00,VWS V14.01,2013-09-19 14:38:00,
2013-09-19 07:43:00,53.8,43.1,29.40,NNW,347,2.0,11.0,67,0.00,,,0.00,VWS V14.01,2013-09-19 14:43:00,
2013-09-19 07:56:00,52.7,42.5,29.40,NNW,338,2.0,3.0,68,0.00,,,0.00,VWS V14.01,2013-09-19 14:56:00,
2013-09-19 08:00:00,56.0,44.8,29.45,NNW,338,2.0,3.0,66,0.00,,,0.00,VWS V14.01,2013-09-19 15:00:00,
2013-09-19 08:01:00,55.9,43.9,29.40,NNW,347,0.0,2.0,64,0.00,,,0.00,VWS V14.01,2013-09-19 15:01:00,
2013-09-19 08:06:00,56.8,44.3,29.40,NNW,347,0.0,2.0,63,0.00,,,0.00,VWS V14.01,2013-09-19 15:06:00,
2013-09-19 08:11:00,57.1,44.2,29.40,NNW,347,1.0,2.0,62,0.00,,,0.00,VWS V14.01,2013-09-19 15:11:00,
2013-09-19 08:16:00,57.3,44.0,29.41,NNW,347,0.0,2.0,61,0.00,,,0.00,VWS V14.01,2013-09-19 15:16:00,
2013-09-19 08:21:00,57.7,44.4,29.40,NNW,347,0.0,2.0,61,0.00,,,0.00,VWS V14.01,2013-09-19 15:21:00,
2013-09-19 08:26:00,58.1,44.3,29.41,NNW,347,0.0,2.0,60,0.00,,,0.00,VWS V14.01,2013-09-19 15:26:00,
2013-09-19 08:30:00,56.6,44.6,29.45,NNW,338,1.0,3.0,64,0.00,,,0.00,VWS V14.01,2013-09-19 15:30:00,
2013-09-19 08:31:00,58.4,44.6,29.41,NNW,347,0.0,2.0,60,0.00,,,0.00,VWS V14.01,2013-09-19 15:31:00,
2013-09-19 08:36:00,58.8,45.0,29.41,NNW,347,0.0,2.0,60,0.00,,,0.00,VWS V14.01,2013-09-19 15:36:00,
2013-09-19 08:41:00,60.3,46.4,29.41,NNW,347,1.0,3.0,60,0.00,,,0.00,VWS V14.01,2013-09-19 15:41:00,
2013-09-19 08:46:00,61.8,47.3,29.41,NNW,347,0.0,3.0,59,0.00,,,0.00,VWS V14.01,2013-09-19 15:46:00,
2013-09-19 08:51:00,62.7,46.3,29.41,NNW,347,0.0,3.0,55,0.00,,,0.00,VWS V14.01,2013-09-19 15:51:00,
2013-09-19 08:56:00,63.1,46.2,29.41,NNW,347,0.0,3.0,54,0.00,,,0.00,VWS V14.01,2013-09-19 15:56:00,
2013-09-19 09:00:00,56.9,45.3,29.45,NNW,338,0.0,2.0,65,0.00,,,0.00,VWS V14.01,2013-09-19 16:00:00,
2013-09-19 09:01:00,63.2,46.3,29.41,NNW,347,0.0,3.0,54,0.00,,,0.00,VWS V14.01,2013-09-19 16:01:00,
2013-09-19 09:06:00,63.1,46.7,29.41,NNW,347,2.0,3.0,55,0.00,,,0.00,VWS V14.01,2013-09-19 16:06:00,
2013-09-19 09:11:00,63.7,47.7,29.41,NNW,347,0.0,3.0,56,0.00,,,0.00,VWS V14.01,2013-09-19 16:11:00,
2013-09-19 09:16:00,64.7,48.7,29.41,NNW,347,0.0,3.0,56,0.00,,,0.00,VWS V14.01,2013-09-19 16:16:00,
2013-09-19 09:21:00,65.6,49.0,29.41,NNW,347,2.0,3.0,55,0.00,,,0.00,VWS V14.01,2013-09-19 16:21:00,
2013-09-19 09:26:00,66.4,49.3,29.41,NNW,347,0.0,3.0,54,0.00,,,0.00,VWS V14.01,2013-09-19 16:26:00,
2013-09-19 09:30:00,57.3,44.4,29.46,NNW,338,0.0,2.0,62,0.00,,,0.00,VWS V14.01,2013-09-19 16:30:00,
2013-09-19 09:31:00,67.2,49.0,29.41,NNW,347,0.0,3.0,52,0.00,,,0.00,VWS V14.01,2013-09-19 16:31:00,
2013-09-19 09:36:00,68.0,49.7,29.41,NNW,347,0.0,3.0,52,0.00,,,0.00,VWS V14.01,2013-09-19 16:36:00,
2013-09-19 09:41:00,68.8,49.4,29.41,NNW,347,2.0,3.0,50,0.00,,,0.00,VWS V14.01,2013-09-19 16:41:00,
2013-09-19 09:46:00,69.3,49.9,29.41,NNW,347,0.0,3.0,50,0.00,,,0.00,VWS V14.01,2013-09-19 16:46:00,
2013-09-19 09:51:00,69.8,49.8,29.41,NNW,347,0.0,3.0,49,0.00,,,0.00,VWS V14.01,2013-09-19 16:51:00,
2013-09-19 09:56:00,69.9,49.9,29.41,North,359,0.0,4.0,49,0.00,,,0.00,VWS V14.01,2013-09-19 16:56:00,
2013-09-19 10:00:00,61.2,45.4,29.46,NNW,338,0.0,2.0,56,0.00,,,0.00,VWS V14.01,2013-09-19 17:00:00,
2013-09-19 10:01:00,70.2,50.2,29.41,North,359,0.0,4.0,49,0.00,,,0.00,VWS V14.01,2013-09-19 17:01:00,
2013-09-19 10:06:00,70.5,50.4,29.41,North,359,0.0,4.0,49,0.00,,,0.00,VWS V14.01,2013-09-19 17:06:00,
2013-09-19 10:11:00,71.0,49.8,29.41,North,359,0.0,4.0,47,0.00,,,0.00,VWS V14.01,2013-09-19 17:11:00,
2013-09-19 10:16:00,72.0,50.7,29.41,North,359,1.0,4.0,47,0.00,,,0.00,VWS V14.01,2013-09-19 17:16:00,
2013-09-19 10:21:00,72.5,50.6,29.41,North,359,2.0,4.0,46,0.00,,,0.00,VWS V14.01,2013-09-19 17:21:00,
2013-09-19 10:26:00,72.7,50.8,29.41,NNE,27,1.0,4.0,46,0.00,,,0.00,VWS V14.01,2013-09-19 17:26:00,
2013-09-19 10:30:00,65.1,44.9,29.46,NNW,338,0.0,2.0,48,0.00,,,0.00,VWS V14.01,2013-09-19 17:30:00,
2013-09-19 10:31:00,72.6,50.1,29.41,NNE,33,0.0,5.0,45,0.00,,,0.00,VWS V14.01,2013-09-19 17:31:00,
2013-09-19 10:36:00,73.1,50.5,29.41,NNE,31,1.0,5.0,45,0.00,,,0.00,VWS V14.01,2013-09-19 17:36:00,
2013-09-19 10:41:00,73.7,50.5,29.41,NNE,29,3.0,5.0,44,0.00,,,0.00,VWS V14.01,2013-09-19 17:41:00,
2013-09-19 10:46:00,73.8,50.5,29.41,NNE,29,0.0,5.0,44,0.00,,,0.00,VWS V14.01,2013-09-19 17:46:00,
2013-09-19 10:51:00,74.3,51.0,29.41,NNE,29,3.0,5.0,44,0.00,,,0.00,VWS V14.01,2013-09-19 17:51:00,
2013-09-19 10:56:00,73.9,51.2,29.40,NNE,33,1.0,6.0,45,0.00,,,0.00,VWS V14.01,2013-09-19 17:56:00,
2013-09-19 11:00:00,69.2,45.8,29.46,NNW,338,1.0,4.0,43,0.00,,,0.00,VWS V14.01,2013-09-19 18:00:00,
2013-09-19 11:01:00,74.0,51.3,29.41,NNE,33,1.0,6.0,45,0.00,,,0.00,VWS V14.01,2013-09-19 18:01:00,
2013-09-19 11:07:00,74.4,51.7,29.41,NE,56,1.0,6.0,45,0.00,,,0.00,VWS V14.01,2013-09-19 18:07:00,
2013-09-19 11:12:00,74.5,51.8,29.40,NE,55,0.0,6.0,45,0.00,,,0.00,VWS V14.01,2013-09-19 18:12:00,
2013-09-19 11:17:00,75.2,51.8,29.40,NE,55,2.0,6.0,44,0.00,,,0.00,VWS V14.01,2013-09-19 18:17:00,
2013-09-19 11:22:00,75.0,52.8,29.40,NE,56,0.0,6.0,46,0.00,,,0.00,VWS V14.01,2013-09-19 18:22:00,
2013-09-19 11:27:00,75.4,52.6,29.39,NE,56,4.0,6.0,45,0.00,,,0.00,VWS V14.01,2013-09-19 18:27:00,
2013-09-19 11:30:00,72.2,45.9,29.47,NNW,338,1.0,5.0,39,0.00,,,0.00,VWS V14.01,2013-09-19 18:30:00,
2013-09-19 11:32:00,75.5,52.7,29.40,NE,55,3.0,6.0,45,0.00,,,0.00,VWS V14.01,2013-09-19 18:32:00,
2013-09-19 11:37:00,75.3,53.1,29.40,ENE,63,4.0,8.0,46,0.00,,,0.00,VWS V14.01,2013-09-19 18:37:00,
2013-09-19 11:42:00,75.4,53.2,29.39,ENE,63,3.0,8.0,46,0.00,,,0.00,VWS V14.01,2013-09-19 18:42:00,
2013-09-19 11:47:00,75.0,53.4,29.39,ENE,63,4.0,8.0,47,0.00,,,0.00,VWS V14.01,2013-09-19 18:47:00,
2013-09-19 11:52:00,75.3,53.1,29.39,ESE,102,2.0,8.0,46,0.00,,,0.00,VWS V14.01,2013-09-19 18:52:00,
2013-09-19 11:57:00,75.2,53.0,29.39,ESE,106,1.0,8.0,46,0.00,,,0.00,VWS V14.01,2013-09-19 18:57:00,
2013-09-19 12:00:00,73.6,41.1,29.45,NNW,338,2.0,7.0,31,0.00,,,0.00,VWS V14.01,2013-09-19 19:00:00,
2013-09-19 12:02:00,75.6,52.8,29.39,ESE,106,6.0,8.0,45,0.00,,,0.00,VWS V14.01,2013-09-19 19:02:00,
2013-09-19 12:07:00,75.5,52.1,29.39,ESE,106,5.0,8.0,44,0.00,,,0.00,VWS V14.01,2013-09-19 19:07:00,
2013-09-19 12:12:00,75.9,53.1,29.39,ESE,105,1.0,8.0,45,0.00,,,0.00,VWS V14.01,2013-09-19 19:12:00,
2013-09-19 12:17:00,77.0,51.5,29.39,ESE,106,4.0,9.0,41,0.00,,,0.00,VWS V14.01,2013-09-19 19:17:00,
2013-09-19 12:22:00,77.1,51.6,29.38,ESE,106,3.0,9.0,41,0.00,,,0.00,VWS V14.01,2013-09-19 19:22:00,
2013-09-19 12:27:00,77.2,51.7,29.38,ESE,106,3.0,9.0,41,0.00,,,0.00,VWS V14.01,2013-09-19 19:27:00,
2013-09-19 12:30:00,75.4,40.1,29.44,SE,135,2.0,8.0,28,0.00,,,0.00,VWS V14.01,2013-09-19 19:30:00,
2013-09-19 12:32:00,77.8,50.9,29.38,ESE,106,4.0,9.0,39,0.00,,,0.00,VWS V14.01,2013-09-19 19:32:00,
2013-09-19 12:37:00,77.8,50.2,29.38,ESE,105,1.0,9.0,38,0.00,,,0.00,VWS V14.01,2013-09-19 19:37:00,
2013-09-19 12:42:00,78.9,50.4,29.38,ESE,106,1.0,9.0,37,0.00,,,0.00,VWS V14.01,2013-09-19 19:42:00,
2013-09-19 12:47:00,80.3,49.4,29.37,ESE,105,5.0,9.0,34,0.00,,,0.00,VWS V14.01,2013-09-19 19:47:00,
2013-09-19 12:52:00,80.8,49.0,29.37,ESE,105,1.0,9.0,33,0.00,,,0.00,VWS V14.01,2013-09-19 19:52:00,
2013-09-19 12:57:00,81.2,49.4,29.37,ESE,105,3.0,9.0,33,0.00,,,0.00,VWS V14.01,2013-09-19 19:57:00,
2013-09-19 13:00:00,76.6,41.1,29.44,SSE,158,2.0,9.0,28,0.00,,,0.00,VWS V14.01,2013-09-19 20:00:00,
2013-09-19 13:02:00,80.8,49.0,29.37,ESE,105,2.0,9.0,33,0.00,,,0.00,VWS V14.01,2013-09-19 20:02:00,
2013-09-19 13:07:00,81.1,49.3,29.37,ESE,105,4.0,10.0,33,0.00,,,0.00,VWS V14.01,2013-09-19 20:07:00,
2013-09-19 13:12:00,81.3,49.5,29.37,ESE,105,3.0,10.0,33,0.00,,,0.00,VWS V14.01,2013-09-19 20:12:00,
2013-09-19 13:17:00,81.6,48.1,29.37,ESE,105,4.0,10.0,31,0.00,,,0.00,VWS V14.01,2013-09-19 20:17:00,
2013-09-19 13:22:00,82.1,48.5,29.36,ESE,105,3.0,10.0,31,0.00,,,0.00,VWS V14.01,2013-09-19 20:22:00,
2013-09-19 13:27:00,82.2,44.9,29.36,ESE,106,1.0,10.0,27,0.00,,,0.00,VWS V14.01,2013-09-19 20:27:00,
2013-09-19 13:30:00,78.9,40.1,29.43,South,180,1.0,8.0,25,0.00,,,0.00,VWS V14.01,2013-09-19 20:30:00,
2013-09-19 13:32:00,82.8,44.5,29.36,ESE,105,4.0,10.0,26,0.00,,,0.00,VWS V14.01,2013-09-19 20:32:00,
2013-09-19 13:37:00,83.1,46.7,29.36,ESE,105,2.0,10.0,28,0.00,,,0.00,VWS V14.01,2013-09-19 20:37:00,
2013-09-19 13:42:00,83.6,45.1,29.36,ESE,105,8.0,10.0,26,0.00,,,0.00,VWS V14.01,2013-09-19 20:42:00,
2013-09-19 13:47:00,83.4,45.0,29.35,ESE,105,5.0,10.0,26,0.00,,,0.00,VWS V14.01,2013-09-19 20:47:00,
2013-09-19 13:52:00,83.8,46.3,29.35,ESE,105,2.0,10.0,27,0.00,,,0.00,VWS V14.01,2013-09-19 20:52:00,
2013-09-19 13:57:00,84.3,43.6,29.35,ESE,105,5.0,10.0,24,0.00,,,0.00,VWS V14.01,2013-09-19 20:57:00,
2013-09-19 14:00:00,80.5,40.4,29.42,SSE,158,2.0,9.0,24,0.00,,,0.00,VWS V14.01,2013-09-19 21:00:00,
2013-09-19 14:02:00,84.3,44.7,29.35,ESE,105,2.0,10.0,25,0.00,,,0.00,VWS V14.01,2013-09-19 21:02:00,
2013-09-19 14:07:00,83.9,43.3,29.34,ESE,106,3.0,10.0,24,0.00,,,0.00,VWS V14.01,2013-09-19 21:07:00,
2013-09-19 14:12:00,83.7,43.1,29.34,ESE,106,5.0,10.0,24,0.00,,,0.00,VWS V14.01,2013-09-19 21:12:00,
2013-09-19 14:17:00,84.0,44.4,29.34,ESE,107,6.0,10.0,25,0.00,,,0.00,VWS V14.01,2013-09-19 21:17:00,
2013-09-19 14:22:00,84.2,43.5,29.34,ESE,106,5.0,10.0,24,0.00,,,0.00,VWS V14.01,2013-09-19 21:22:00,
2013-09-19 14:27:00,84.2,43.5,29.33,ESE,106,5.0,10.0,24,0.00,,,0.00,VWS V14.01,2013-09-19 21:27:00,
2013-09-19 14:30:00,81.7,44.5,29.41,SSE,158,2.0,8.0,27,0.00,,,0.00,VWS V14.01,2013-09-19 21:30:00,
2013-09-19 14:32:00,84.5,43.8,29.33,ESE,106,5.0,10.0,24,0.00,,,0.00,VWS V14.01,2013-09-19 21:32:00,
2013-09-19 14:37:00,84.8,42.9,29.33,ESE,106,3.0,10.0,23,0.00,,,0.00,VWS V14.01,2013-09-19 21:37:00,
2013-09-19 14:42:00,84.9,41.9,29.33,ESE,106,5.0,10.0,22,0.00,,,0.00,VWS V14.01,2013-09-19 21:42:00,
2013-09-19 14:47:00,85.1,39.6,29.32,ESE,106,3.0,10.0,20,0.00,,,0.00,VWS V14.01,2013-09-19 21:47:00,
2013-09-19 14:52:00,85.3,38.4,29.33,ESE,106,7.0,10.0,19,0.00,,,0.00,VWS V14.01,2013-09-19 21:52:00,
2013-09-19 14:57:00,85.4,38.5,29.32,ESE,105,8.0,10.0,19,0.00,,,0.00,VWS V14.01,2013-09-19 21:57:00,
2013-09-19 15:00:00,82.1,44.8,29.39,SW,225,2.0,6.0,27,0.00,,,0.00,VWS V14.01,2013-09-19 22:00:00,
2013-09-19 15:02:00,85.6,38.7,29.32,ESE,105,3.0,10.0,19,0.00,,,0.00,VWS V14.01,2013-09-19 22:02:00,
2013-09-19 15:07:00,85.8,38.8,29.32,ESE,106,5.0,10.0,19,0.00,,,0.00,VWS V14.01,2013-09-19 22:07:00,
2013-09-19 15:12:00,85.6,38.7,29.32,ESE,106,2.0,10.0,19,0.00,,,0.00,VWS V14.01,2013-09-19 22:12:00,
2013-09-19 15:17:00,85.7,38.7,29.32,ESE,106,4.0,10.0,19,0.00,,,0.00,VWS V14.01,2013-09-19 22:17:00,
2013-09-19 15:22:00,86.0,37.6,29.31,ESE,106,3.0,10.0,18,0.00,,,0.00,VWS V14.01,2013-09-19 22:22:00,
2013-09-19 15:27:00,86.3,39.2,29.31,ESE,106,1.0,10.0,19,0.00,,,0.00,VWS V14.01,2013-09-19 22:27:00,
2013-09-19 15:30:00,84.9,47.2,29.39,WSW,248,2.0,9.0,27,0.00,,,0.00,VWS V14.01,2013-09-19 22:30:00,
2013-09-19 15:32:00,86.8,39.6,29.31,ESE,106,4.0,10.0,19,0.00,,,0.00,VWS V14.01,2013-09-19 22:32:00,
2013-09-19 15:37:00,87.3,40.0,29.31,ESE,105,1.0,10.0,19,0.00,,,0.00,VWS V14.01,2013-09-19 22:37:00,
2013-09-19 15:42:00,88.3,40.9,29.31,ESE,105,1.0,10.0,19,0.00,,,0.00,VWS V14.01,2013-09-19 22:42:00,
2013-09-19 15:47:00,89.6,40.5,29.31,ESE,104,2.0,10.0,18,0.00,,,0.00,VWS V14.01,2013-09-19 22:47:00,
2013-09-19 15:52:00,90.5,39.8,29.31,North,353,4.0,10.0,17,0.00,,,0.00,VWS V14.01,2013-09-19 22:52:00,
2013-09-19 15:57:00,90.8,40.0,29.30,NNW,348,2.0,10.0,17,0.00,,,0.00,VWS V14.01,2013-09-19 22:57:00,
2013-09-19 16:00:00,84.4,45.8,29.38,NW,315,3.0,8.0,26,0.00,,,0.00,VWS V14.01,2013-09-19 23:00:00,
2013-09-19 16:02:00,91.0,40.2,29.31,WNW,299,2.0,10.0,17,0.00,,,0.00,VWS V14.01,2013-09-19 23:02:00,
2013-09-19 16:07:00,90.3,39.6,29.31,North,359,5.0,10.0,17,0.00,,,0.00,VWS V14.01,2013-09-19 23:07:00,
2013-09-19 16:12:00,90.3,39.6,29.31,North,359,1.0,10.0,17,0.00,,,0.00,VWS V14.01,2013-09-19 23:12:00,
2013-09-19 16:17:00,90.3,39.6,29.30,North,352,3.0,10.0,17,0.00,,,0.00,VWS V14.01,2013-09-19 23:17:00,
2013-09-19 16:22:00,90.2,39.5,29.30,North,8,1.0,10.0,17,0.00,,,0.00,VWS V14.01,2013-09-19 23:22:00,
2013-09-19 16:27:00,89.8,39.2,29.30,NNW,339,4.0,10.0,17,0.00,,,0.00,VWS V14.01,2013-09-19 23:27:00,
2013-09-19 16:30:00,82.6,45.3,29.38,NNW,338,5.0,10.0,27,0.00,,,0.00,VWS V14.01,2013-09-19 23:30:00,
2013-09-19 16:32:00,89.4,38.9,29.30,NNW,338,3.0,10.0,17,0.00,,,0.00,VWS V14.01,2013-09-19 23:32:00,
2013-09-19 16:37:00,89.5,41.8,29.30,NNW,339,1.0,10.0,19,0.00,,,0.00,VWS V14.01,2013-09-19 23:37:00,
2013-09-19 16:42:00,89.7,42.0,29.30,NNW,338,5.0,10.0,19,0.00,,,0.00,VWS V14.01,2013-09-19 23:42:00,
2013-09-19 16:47:00,89.3,43.0,29.29,NNW,338,5.0,10.0,20,0.00,,,0.00,VWS V14.01,2013-09-19 23:47:00,
2013-09-19 16:52:00,88.6,42.4,29.30,NNW,337,2.0,10.0,20,0.00,,,0.00,VWS V14.01,2013-09-19 23:52:00,
2013-09-19 16:57:00,88.1,42.0,29.29,NNW,335,1.0,10.0,20,0.00,,,0.00,VWS V14.01,2013-09-19 23:57:00,
2013-09-19 17:00:00,80.7,43.7,29.38,NNW,338,6.0,9.0,27,0.00,,,0.00,VWS V14.01,2013-09-20 00:00:00,
2013-09-19 17:02:00,88.0,40.6,29.29,NNW,335,2.0,10.0,19,0.00,,,0.00,VWS V14.01,2013-09-20 00:02:00,
2013-09-19 17:07:00,87.5,40.2,29.30,NNW,331,4.0,10.0,19,0.00,,,0.00,VWS V14.01,2013-09-20 00:07:00,
2013-09-19 17:12:00,87.1,41.2,29.29,NNW,329,3.0,10.0,20,0.00,,,0.00,VWS V14.01,2013-09-20 00:12:00,
2013-09-19 17:17:00,86.7,39.6,29.29,NNW,329,3.0,10.0,19,0.00,,,0.00,VWS V14.01,2013-09-20 00:17:00,
2013-09-19 17:22:00,86.4,40.6,29.29,NNW,327,3.0,10.0,20,0.00,,,0.00,VWS V14.01,2013-09-20 00:22:00,
2013-09-19 17:27:00,86.0,40.3,29.28,NNW,328,2.0,10.0,20,0.00,,,0.00,VWS V14.01,2013-09-20 00:27:00,
2013-09-19 17:30:00,79.9,43.0,29.37,NW,315,6.0,9.0,27,0.00,,,0.00,VWS V14.01,2013-09-20 00:30:00,
2013-09-19 17:32:00,85.9,40.2,29.29,NNW,328,2.0,10.0,20,0.00,,,0.00,VWS V14.01,2013-09-20 00:32:00,
2013-09-19 17:37:00,85.6,40.0,29.29,NNW,328,3.0,10.0,20,0.00,,,0.00,VWS V14.01,2013-09-20 00:37:00,
2013-09-19 17:42:00,85.3,41.0,29.29,NNW,344,3.0,10.0,21,0.00,,,0.00,VWS V14.01,2013-09-20 00:42:00,
2013-09-19 17:47:00,85.1,40.8,29.29,NNW,344,3.0,10.0,21,0.00,,,0.00,VWS V14.01,2013-09-20 00:47:00,
2013-09-19 17:53:00,84.8,40.6,29.29,NNW,344,3.0,10.0,21,0.00,,,0.00,VWS V14.01,2013-09-20 00:53:00,
2013-09-19 17:58:00,84.2,40.1,29.29,NNW,342,4.0,10.0,21,0.00,,,0.00,VWS V14.01,2013-09-20 00:58:00,
2013-09-19 18:00:00,79.3,42.5,29.37,NNW,338,5.0,9.0,27,0.00,,,0.00,VWS V14.01,2013-09-20 01:00:00,
2013-09-19 18:03:00,83.6,40.8,29.29,NNW,328,4.0,10.0,22,0.00,,,0.00,VWS V14.01,2013-09-20 01:03:00,
2013-09-19 18:08:00,82.7,41.2,29.29,NNW,335,4.0,10.0,23,0.00,,,0.00,VWS V14.01,2013-09-20 01:08:00,
2013-09-19 18:13:00,81.7,41.4,29.29,NW,321,4.0,10.0,24,0.00,,,0.00,VWS V14.01,2013-09-20 01:13:00,
2013-09-19 18:18:00,80.9,41.8,29.29,NW,322,4.0,10.0,25,0.00,,,0.00,VWS V14.01,2013-09-20 01:18:00,
2013-09-19 18:23:00,80.1,42.2,29.29,NW,323,4.0,10.0,26,0.00,,,0.00,VWS V14.01,2013-09-20 01:23:00,
2013-09-19 18:28:00,79.1,42.3,29.28,NW,324,4.0,10.0,27,0.00,,,0.00,VWS V14.01,2013-09-20 01:28:00,
2013-09-19 18:30:00,78.4,41.7,29.36,NNW,338,4.0,7.0,27,0.00,,,0.00,VWS V14.01,2013-09-20 01:30:00,
2013-09-19 18:33:00,78.2,41.5,29.29,NNW,328,5.0,10.0,27,0.00,,,0.00,VWS V14.01,2013-09-20 01:33:00,
2013-09-19 18:38:00,77.5,42.8,29.29,NNW,328,3.0,10.0,29,0.00,,,0.00,VWS V14.01,2013-09-20 01:38:00,
2013-09-19 18:43:00,76.7,43.0,29.28,NNW,328,4.0,10.0,30,0.00,,,0.00,VWS V14.01,2013-09-20 01:43:00,
2013-09-19 18:48:00,75.7,43.8,29.29,NNW,329,4.0,10.0,32,0.00,,,0.00,VWS V14.01,2013-09-20 01:48:00,
2013-09-19 18:53:00,74.7,43.7,29.29,NNW,330,8.0,10.0,33,0.00,,,0.00,VWS V14.01,2013-09-20 01:53:00,
2013-09-19 18:58:00,73.6,42.8,29.29,NNW,329,4.0,10.0,33,0.00,,,0.00,VWS V14.01,2013-09-20 01:58:00,
2013-09-19 19:00:00,77.1,43.3,29.36,NNW,338,5.0,11.0,30,0.00,,,0.00,VWS V14.01,2013-09-20 02:00:00,
2013-09-19 19:03:00,72.4,43.2,29.29,NNW,327,6.0,11.0,35,0.00,,,0.00,VWS V14.01,2013-09-20 02:03:00,
2013-09-19 19:08:00,71.3,43.7,29.29,NNW,328,9.0,11.0,37,0.00,,,0.00,VWS V14.01,2013-09-20 02:08:00,
2013-09-19 19:13:00,69.9,44.5,29.29,NW,318,5.0,14.0,40,0.00,,,0.00,VWS V14.01,2013-09-20 02:13:00,
2013-09-19 19:18:00,68.8,45.4,29.29,NNW,329,8.0,14.0,43,0.00,,,0.00,VWS V14.01,2013-09-20 02:18:00,
2013-09-19 19:23:00,67.8,45.7,29.29,NW,324,10.0,14.0,45,0.00,,,0.00,VWS V14.01,2013-09-20 02:23:00,
2013-09-19 19:28:00,66.7,45.8,29.29,NW,325,6.0,14.0,47,0.00,,,0.00,VWS V14.01,2013-09-20 02:28:00,
2013-09-19 19:30:00,73.0,42.2,29.37,NNW,338,6.0,10.0,33,0.00,,,0.00,VWS V14.01,2013-09-20 02:30:00,
2013-09-19 19:33:00,66.1,45.9,29.30,NNW,338,4.0,14.0,48,0.00,,,0.00,VWS V14.01,2013-09-20 02:33:00,
2013-09-19 19:38:00,65.8,45.6,29.30,NW,325,4.0,14.0,48,0.00,,,0.00,VWS V14.01,2013-09-20 02:38:00,
2013-09-19 19:43:00,65.5,44.8,29.30,NNW,331,6.0,14.0,47,0.00,,,0.00,VWS V14.01,2013-09-20 02:43:00,
2013-09-19 19:48:00,65.3,45.1,29.30,NNW,338,4.0,14.0,48,0.00,,,0.00,VWS V14.01,2013-09-20 02:48:00,
2013-09-19 19:53:00,65.0,44.8,29.30,NNW,348,3.0,14.0,48,0.00,,,0.00,VWS V14.01,2013-09-20 02:53:00,
2013-09-19 19:58:00,64.8,45.2,29.31,North,349,4.0,14.0,49,0.00,,,0.00,VWS V14.01,2013-09-20 02:58:00,
2013-09-19 20:00:00,69.2,42.5,29.38,NNW,338,4.0,8.0,38,0.00,,,0.00,VWS V14.01,2013-09-20 03:00:00,
2013-09-19 20:03:00,64.3,45.3,29.30,NNW,333,4.0,14.0,50,0.00,,,0.00,VWS V14.01,2013-09-20 03:03:00,
2013-09-19 20:08:00,63.9,45.4,29.31,NNW,330,5.0,14.0,51,0.00,,,0.00,VWS V14.01,2013-09-20 03:08:00,
2013-09-19 20:13:00,63.5,45.1,29.30,NNW,329,5.0,14.0,51,0.00,,,0.00,VWS V14.01,2013-09-20 03:13:00,
2013-09-19 20:18:00,63.2,45.3,29.30,NNW,331,5.0,14.0,52,0.00,,,0.00,VWS V14.01,2013-09-20 03:18:00,
2013-09-19 20:23:00,62.9,45.0,29.31,NNW,337,6.0,14.0,52,0.00,,,0.00,VWS V14.01,2013-09-20 03:23:00,
2013-09-19 20:28:00,62.8,44.9,29.31,NNW,337,4.0,14.0,52,0.00,,,0.00,VWS V14.01,2013-09-20 03:28:00,
2013-09-19 20:30:00,66.3,41.9,29.37,NNW,338,4.0,7.0,41,0.00,,,0.00,VWS V14.01,2013-09-20 03:30:00,
2013-09-19 20:33:00,62.8,44.4,29.31,North,349,6.0,14.0,51,0.00,,,0.00,VWS V14.01,2013-09-20 03:33:00,
2013-09-19 20:38:00,62.7,44.3,29.31,NNW,337,5.0,14.0,51,0.00,,,0.00,VWS V14.01,2013-09-20 03:38:00,
2013-09-19 20:43:00,62.6,44.8,29.31,North,355,5.0,14.0,52,0.00,,,0.00,VWS V14.01,2013-09-20 03:43:00,
2013-09-19 20:48:00,62.3,44.5,29.31,NNW,337,5.0,14.0,52,0.00,,,0.00,VWS V14.01,2013-09-20 03:48:00,
2013-09-19 20:58:00,62.1,44.3,29.32,NNW,340,6.0,14.0,52,0.00,,,0.00,VWS V14.01,2013-09-20 03:58:00,
2013-09-19 21:00:00,64.8,41.8,29.38,NNW,338,4.0,6.0,43,0.00,,,0.00,VWS V14.01,2013-09-20 04:00:00,
2013-09-19 21:03:00,61.9,44.1,29.32,NNW,342,3.0,14.0,52,0.00,,,0.00,VWS V14.01,2013-09-20 04:03:00,
2013-09-19 21:08:00,61.9,44.6,29.31,NNW,348,4.0,14.0,53,0.00,,,0.00,VWS V14.01,2013-09-20 04:08:00,
2013-09-19 21:13:00,61.8,44.5,29.31,NNW,348,4.0,14.0,53,0.00,,,0.00,VWS V14.01,2013-09-20 04:13:00,
2013-09-19 21:18:00,61.7,44.4,29.32,NNW,345,3.0,14.0,53,0.00,,,0.00,VWS V14.01,2013-09-20 04:18:00,
2013-09-19 21:23:00,61.5,44.2,29.32,NNW,344,3.0,14.0,53,0.00,,,0.00,VWS V14.01,2013-09-20 04:23:00,
2013-09-19 21:28:00,61.5,44.2,29.32,NNW,345,5.0,14.0,53,0.00,,,0.00,VWS V14.01,2013-09-20 04:28:00,
2013-09-19 21:30:00,63.5,42.4,29.38,NNW,338,3.0,5.0,46,0.00,,,0.00,VWS V14.01,2013-09-20 04:30:00,
2013-09-19 21:33:00,61.4,44.6,29.31,NNW,346,3.0,14.0,54,0.00,,,0.00,VWS V14.01,2013-09-20 04:33:00,
2013-09-19 21:38:00,61.3,44.5,29.32,NNW,345,1.0,14.0,54,0.00,,,0.00,VWS V14.01,2013-09-20 04:38:00,
2013-09-19 21:43:00,61.2,44.4,29.31,NNW,345,4.0,14.0,54,0.00,,,0.00,VWS V14.01,2013-09-20 04:43:00,
2013-09-19 21:48:00,60.9,44.6,29.32,NNW,345,4.0,14.0,55,0.00,,,0.00,VWS V14.01,2013-09-20 04:48:00,
2013-09-19 21:53:00,60.7,44.5,29.32,NNW,345,2.0,14.0,55,0.00,,,0.00,VWS V14.01,2013-09-20 04:53:00,
2013-09-19 21:58:00,60.6,44.4,29.31,NNW,345,2.0,14.0,55,0.00,,,0.00,VWS V14.01,2013-09-20 04:58:00,
2013-09-19 22:00:00,62.5,43.6,29.38,NNW,338,1.0,5.0,50,0.00,,,0.00,VWS V14.01,2013-09-20 05:00:00,
2013-09-19 22:03:00,60.4,44.2,29.31,NNW,345,2.0,14.0,55,0.00,,,0.00,VWS V14.01,2013-09-20 05:03:00,
2013-09-19 22:08:00,60.2,44.5,29.32,NNW,345,3.0,14.0,56,0.00,,,0.00,VWS V14.01,2013-09-20 05:08:00,
2013-09-19 22:14:00,60.0,44.3,29.31,NNW,345,2.0,14.0,56,0.00,,,0.00,VWS V14.01,2013-09-20 05:14:00,
2013-09-19 22:19:00,59.9,44.7,29.32,NNW,346,2.0,14.0,57,0.00,,,0.00,VWS V14.01,2013-09-20 05:19:00,
2013-09-19 22:24:00,59.7,44.5,29.32,NNW,345,2.0,14.0,57,0.00,,,0.00,VWS V14.01,2013-09-20 05:24:00,
2013-09-19 22:29:00,59.5,44.3,29.32,NNW,345,2.0,14.0,57,0.00,,,0.00,VWS V14.01,2013-09-20 05:29:00,
2013-09-19 22:30:00,61.5,42.7,29.39,NNW,338,2.0,5.0,50,0.00,,,0.00,VWS V14.01,2013-09-20 05:30:00,
2013-09-19 22:34:00,59.4,44.6,29.32,NNW,345,2.0,14.0,58,0.00,,,0.00,VWS V14.01,2013-09-20 05:34:00,
2013-09-19 22:39:00,59.4,44.6,29.32,NNW,345,2.0,14.0,58,0.00,,,0.00,VWS V14.01,2013-09-20 05:39:00,
2013-09-19 22:44:00,59.5,44.7,29.32,NNW,345,2.0,14.0,58,0.00,,,0.00,VWS V14.01,2013-09-20 05:44:00,
2013-09-19 22:49:00,59.5,44.7,29.32,NNW,345,0.0,14.0,58,0.00,,,0.00,VWS V14.01,2013-09-20 05:49:00,
2013-09-19 22:54:00,59.4,44.6,29.32,NNW,345,0.0,14.0,58,0.00,,,0.00,VWS V14.01,2013-09-20 05:54:00,
2013-09-19 22:59:00,59.1,44.8,29.32,NNW,345,0.0,14.0,59,0.00,,,0.00,VWS V14.01,2013-09-20 05:59:00,
2013-09-19 23:00:00,61.4,43.1,29.39,NNW,338,2.0,5.0,51,0.00,,,0.00,VWS V14.01,2013-09-20 06:00:00,
2013-09-19 23:04:00,58.7,44.9,29.32,NNW,345,0.0,14.0,60,0.00,,,0.00,VWS V14.01,2013-09-20 06:04:00,
2013-09-19 23:09:00,58.3,44.9,29.32,NNW,345,0.0,14.0,61,0.00,,,0.00,VWS V14.01,2013-09-20 06:09:00,
2013-09-19 23:14:00,57.9,45.0,29.32,NNW,345,0.0,14.0,62,0.00,,,0.00,VWS V14.01,2013-09-20 06:14:00,
2013-09-19 23:19:00,57.5,45.0,29.32,NNW,345,0.0,14.0,63,0.00,,,0.00,VWS V14.01,2013-09-20 06:19:00,
2013-09-19 23:24:00,57.2,44.7,29.32,NNW,345,0.0,14.0,63,0.00,,,0.00,VWS V14.01,2013-09-20 06:24:00,
2013-09-19 23:29:00,57.0,45.0,29.32,NNW,345,0.0,14.0,64,0.00,,,0.00,VWS V14.01,2013-09-20 06:29:00,
2013-09-19 23:30:00,60.6,43.9,29.39,NNW,338,0.0,3.0,54,0.00,,,0.00,VWS V14.01,2013-09-20 06:30:00,
2013-09-19 23:34:00,56.8,45.2,29.32,NNW,345,0.0,14.0,65,0.00,,,0.00,VWS V14.01,2013-09-20 06:34:00,
2013-09-19 23:39:00,56.5,44.9,29.32,NNW,345,0.0,14.0,65,0.00,,,0.00,VWS V14.01,2013-09-20 06:39:00,
2013-09-19 23:44:00,56.5,44.9,29.32,NNW,345,0.0,14.0,65,0.00,,,0.00,VWS V14.01,2013-09-20 06:44:00,
2013-09-19 23:49:00,56.4,44.8,29.33,NNW,345,1.0,14.0,65,0.00,,,0.00,VWS V14.01,2013-09-20 06:49:00,
2013-09-19 23:54:00,56.6,45.4,29.33,NNW,345,0.0,14.0,66,0.00,,,0.00,VWS V14.01,2013-09-20 06:54:00,
2013-09-19 23:59:00,56.6,45.4,29.33,NNW,345,0.0,14.0,66,0.00,,,0.00,VWS V14.01,2013-09-20 06:59:00,